This demonstration page uses our WeatherBlox Daily Observations layout. Learn more.

Left ArrowRight Arrow

30.21309, -93.2044

Hourly Observations for August 14, 2022

Temp ( °F °C ) Dew Point ( °F °C ) Humidity (%) Winds ( mph kmh ) Pressure ( in mb ) Visibility ( mi km ) Precip ( " mm )
12:15 am 00:15 Partly Cloudy 76 24.6 74 23.3 92 92 E 6 9 29.97 1015 10 16 0.00 0.00
12:35 am 00:35 Mostly Cloudy 76 24.6 74 23.4 93 93 E 6 9 29.98 1015 10 16 0.00 0.00
12:55 am 00:55 Partly Cloudy 76 24.6 74 23.4 93 93 ESE 7 11 29.97 1015 10 16 0.00 0.00
1:15 am 01:15 Partly Cloudy 76 24.6 74 23.3 92 92 ESE 7 11 29.97 1015 10 16 0.00 0.00
1:35 am 01:35 Partly Cloudy 76 24.4 74 23.2 93 93 ESE 6 9 29.97 1015 10 16 0.00 0.00
1:55 am 01:55 Mostly Cloudy 76 24.6 74 23.4 93 93 ESE 8 13 29.97 1015 10 16 0.00 0.00
2:15 am 02:15 Cloudy 76 24.5 74 23.3 93 93 ESE 7 11 29.97 1015 10 16 0.00 0.00
2:35 am 02:35 Partly Cloudy 76 24.5 74 23.4 94 94 ESE 7 11 29.96 1015 10 16 0.00 0.00
2:55 am 02:55 Partly Cloudy 76 24.4 74 23.3 94 94 ESE 7 11 29.96 1015 10 16 0.00 0.00
3:15 am 03:15 Mostly Cloudy 76 24.6 74 23.5 94 94 SE 7 11 29.97 1015 10 16 0.00 0.00
3:35 am 03:35 Cloudy 77 25 75 23.8 93 93 SSE 10 17 29.97 1015 10 16 0.00 0.00
3:55 am 03:55 Cloudy with Rain 75 24 73 22.7 92 92 SSE 9 15 29.97 1015 4 6 0.02 0.51
4:15 am 04:15 Cloudy with Light Rain 75 24.1 73 22.7 92 92 SSE 6 9 29.97 1015 10 16 0.01 0.25
4:35 am 04:35 Cloudy with Drizzle 76 24.3 74 23.1 93 93 Calm 29.96 1015 10 16 0.01 0.25
4:55 am 04:55 Cloudy 76 24.3 74 23.3 94 94 E 5 7 29.96 1015 10 16 0.02 0.51
5:15 am 05:15 Cloudy 76 24.3 74 23.3 94 94 E 3 6 29.96 1015 10 16 0.00 0.00
5:35 am 05:35 Mostly Cloudy 75 23.9 73 22.9 94 94 E 3 6 29.96 1015 10 16 0.00 0.00
6:00 am 06:00 Partly Cloudy 73 23 73 23 100 100 SSE 6 9 29.96 1015 10 16 0.00 0.00
6:45 am 06:45 Partly Cloudy 75 24 73 23 94 94 ESE 5 7 29.98 1015 10 16 0.00 0.00
7:49 am 07:49 Partly Cloudy 77 25 75 24 94 94 ESE 6 9 29.99 1016 10 16 0.00 0.00
8:50 am 08:50 Mostly Sunny 82 28 75 24 79 79 ESE 6 9 30.00 1016 10 16 0.00 0.00
9:48 am 09:48 Partly Cloudy 86 30 75 24 70 70 S 8 13 30.01 1016 10 16 0.00 0.00
10:46 am 10:46 Partly Cloudy 88 31 73 23 63 63 S 9 15 30.03 1017 10 16 0.00 0.00
11:52 am 11:52 Partly Cloudy 90 32 73 23 59 59 S 12 19 30.03 1017 10 16 0.00 0.00
12:52 pm 12:52 Partly Cloudy 90 32 72 22 56 56 S 6 9 30.03 1017 10 16 0.00 0.00
1:50 pm 13:50 Partly Cloudy 91 33 70 21 49 49 S 6 9 30.01 1016 10 16 0.00 0.00
2:45 pm 14:45 Partly Cloudy 91 33 72 22 53 53 SSW 12 19 29.99 1016 10 16 0.00 0.00
3:47 pm 15:47 Partly Cloudy 91 33 72 22 53 53 S 13 20 29.97 1015 10 16 0.00 0.00
4:47 pm 16:47 Mostly Sunny 91 33 66 19 44 44 S 8 13 29.96 1014 10 16 0.00 0.00
5:55 pm 17:55 Mostly Sunny 90 32 72 22 56 56 S 8 13 29.96 1014 10 16 0.00 0.00
6:53 pm 18:53 Mostly Sunny 88 31 72 22 59 59 SW 12 19 29.94 1014 10 16 0.00 0.00
7:53 pm 19:53 Mostly Sunny 84 29 73 23 70 70 SSW 6 9 29.94 1014 10 16 0.00 0.00
8:47 pm 20:47 Mostly Clear 82 28 73 23 74 74 SW 7 11 29.95 1014 10 16 0.00 0.00
9:52 pm 21:52 Mostly Clear 79 26 73 23 84 84 S 5 7 29.95 1014 10 16 0.00 0.00
10:15 pm 22:15 Clear 77 25 74 23.2 90 90 S 5 7 29.96 1015 10 16 0.00 0.00
10:35 pm 22:35 Clear 78 25.5 74 23.3 88 88 SSW 3 6 29.96 1014 10 16 0.00 0.00
10:55 pm 22:55 Clear 78 25.3 74 23.4 89 89 S 3 6 29.97 1015 10 16 0.00 0.00
11:15 pm 23:15 Clear 80 26.7 74 23.6 83 83 SSW 6 9 29.97 1015 10 16 0.00 0.00
11:35 pm 23:35 Clear 77 25.2 74 23.3 89 89 SSW 3 6 29.97 1015 10 16 0.00 0.00
11:55 pm 23:55 Clear 80 26.8 74 23.4 82 82 SSW 6 9 29.97 1015 10 16 0.00 0.00

Powered by AerisWeather